Lid_Strength_Index
-1 -1 -1 -1 -1 -1 -1 -1 -0 -0 -1 -1 -1 -1 -1 -1 -1 1 4 2 2 0 1 6 6 6 6 7 7 8 12 14 12 12 12 9 10 9 8 8 8 7 6 5 4
-1 -1 -1 -1 -1 -1 -1 -1 -0 -0 -1 -1 -1 -1 -1 -1 2 3 -0 -1 -1 -0 5 7 8 7 9 9 8 10 13 12 11 12 11 9 9 9 10 9 10 8 6 4 3
-1 -1 -1 -1 -1 -1 -1 -1 -0 -0 -1 -1 -1 -1 -1 -0 4 4 -1 -1 -1 1 4 5 6 7 9 9 10 11 12 11 11 10 9 9 10 9 10 11 9 8 7 4 5
-1 -2 -1 -1 -1 -1 -1 -0 -0 -0 -1 -1 -1 -1 -1 2 11 3 -1 -1 -0 3 5 6 8 10 11 11 9 12 10 10 9 9 9 10 9 10 9 9 8 8 7 5 5
-0 -1 -1 -1 -1 -1 -1 -0 -0 -0 -1 -1 -1 -1 2 6 6 2 -1 0 3 4 6 7 9 9 11 10 10 11 11 10 9 9 10 9 11 10 10 9 8 8 7 5 4
-0 0 -1 -1 -1 -1 -1 -0 -0 -1 -1 -1 -1 -1 5 10 3 2 3 4 4 5 6 7 8 8 9 10 11 10 10 10 10 10 10 11 11 11 10 9 9 8 8 7 5
0 1 -0 -1 -1 -1 -0 -0 -0 -1 -1 -1 -1 0 6 7 3 4 4 5 5 5 6 6 6 8 9 10 9 9 12 11 10 10 10 10 12 11 9 9 10 10 9 8 7
0 1 1 -0 -1 -1 -1 -0 -0 -1 -1 -1 -1 3 8 3 4 3 4 5 5 5 5 5 6 7 8 8 10 12 13 15 11 10 10 11 15 11 10 10 10 10 11 9 9
1 1 1 0 -0 -1 -1 -1 -0 -0 -1 -1 3 5 9 2 4 4 5 6 5 5 6 5 6 9 9 12 14 14 17 15 13 10 10 11 14 10 10 10 10 11 10 10 10
1 1 1 1 1 -1 -0 -0 -1 -0 -0 0 2 8 7 7 4 4 5 5 6 7 7 8 9 12 13 15 18 16 16 14 15 11 12 13 13 11 10 10 11 10 10 10 9
1 1 0 1 1 0 0 2 6 7 4 8 8 9 6 4 3 5 5 6 6 8 12 10 13 15 13 13 12 14 15 15 13 11 12 13 13 12 11 11 11 11 11 10 9
1 1 0 0 0 0 2 5 5 5 8 5 6 6 5 4 6 6 5 8 9 12 10 12 14 11 10 11 12 13 15 15 13 11 13 13 13 12 11 11 9 10 11 10 11
1 1 1 0 0 2 3 4 1 3 9 8 6 7 6 5 7 7 6 8 10 11 12 13 11 9 10 12 12 14 14 15 14 13 13 14 15 13 12 11 10 9 9 9 9
3 1 1 0 2 3 5 3 1 2 12 11 8 7 6 6 9 5 6 8 10 11 12 12 10 11 12 12 12 15 12 12 13 15 18 14 19 15 13 12 11 10 9 9 10
4 3 1 1 3 4 2 2 1 4 19 9 8 4 5 9 8 7 6 8 11 11 11 13 12 12 12 12 11 13 11 12 13 15 16 17 18 17 14 14 12 11 11 10 10
5 4 3 1 2 2 1 1 3 13 20 11 8 9 9 8 9 8 8 7 8 10 11 12 10 11 11 11 11 10 12 12 13 15 19 17 17 18 15 13 12 11 11 9 9
5 5 5 3 4 1 1 4 13 17 11 13 12 10 10 11 10 10 10 11 12 14 14 12 12 11 10 12 11 12 14 18 19 20 20 16 18 17 13 11 11 11 10 9 9
5 5 5 5 3 1 3 9 17 13 12 9 10 11 13 11 12 11 12 13 11 13 14 15 16 12 10 11 12 13 14 18 22 20 19 16 18 15 12 10 9 9 10 9 9
5 5 5 5 3 2 7 15 15 13 11 11 10 13 13 12 13 13 14 14 12 12 15 16 16 11 11 10 10 13 14 12 16 22 20 18 16 13 11 10 10 10 9 9 10
8 8 7 2 3 4 10 14 13 9 9 9 13 11 14 13 13 13 14 12 12 10 11 13 15 13 12 10 11 12 11 15 15 21 22 19 18 16 13 12 11 10 10 10 10
8 11 7 2 3 8 14 13 11 8 8 11 12 13 12 13 13 14 13 12 11 11 9 11 13 15 12 13 13 13 14 13 13 15 19 21 18 14 13 11 10 10 10 10 10
8 15 5 3 10 10 14 11 9 9 8 9 9 11 12 12 12 14 13 12 10 10 12 11 13 18 15 12 11 13 13 13 17 18 17 17 16 11 10 10 9 9 9 10 10
10 10 5 5 14 12 11 10 9 9 9 10 11 9 9 12 14 12 11 9 9 9 11 11 15 21 17 14 13 14 13 12 12 15 16 19 17 11 10 10 9 9 9 9 9
8 13 10 8 10 11 11 11 11 8 9 8 9 9 11 12 10 13 12 9 9 9 9 9 13 16 17 16 13 15 14 12 12 17 16 16 14 12 11 11 10 10 10 10 10
8 11 10 15 13 11 11 10 11 12 9 8 10 10 11 13 13 13 11 10 9 8 9 10 15 13 13 12 12 13 14 13 14 14 16 14 13 12 11 10 10 9 9 9 9
9 11 10 12 11 12 12 13 12 10 10 11 11 10 10 12 11 13 11 11 11 10 10 11 15 14 15 13 13 14 13 13 13 12 13 13 13 9 9 9 10 9 9 10 11
5 5 8 11 13 13 13 12 12 10 9 8 9 10 11 10 9 9 9 9 9 10 12 13 14 15 19 15 15 17 15 13 13 12 12 15 12 10 12 11 11 12 11 11 11